Starlink 32224

operational
NORAD ID: 60941 Int'l Des: 2024-155 Owner: SPXS Country: US Constellation: starlink
LEOCIRCULAR

Starlink 32224について

説明を読み込み中...

リアルタイム位置

3D地球を読み込み中...

次回通過

高度履歴

Altitude vs Time

uPlot chart will show altitude changes over time

軌道要素

1 60941U 24155T 26037.10019772 .00004936 00000-0 17876-3 0 9996
2 60941 53.1558 276.4538 0001191 71.0756 289.0373 15.30184710 81519
Epoch: Feb 6, 2026 • Age: 18 hours

現在のステータス

高度 491.2 km
速度 7.62 km/s
衛星直下点 -44.81°S, 53.2°E
打ち上げ日 Aug 31, 2024
運用期間 1.4 years
タイプ internet

技術仕様

分類 Payload
質量 730.00 kg
乾燥質量 700.00 kg
総質量 730.00 kg
長さ 0.30 m
直径 4.10 m
スパン 29.00 m
形状 Box + pan
製造者 SPXS
バスタイプ Starlink V2M
フェーズステータス In Orbit
所有者/国 SPXS/US

大規模コンステレーション

Loading constellations...